Location: El Bakhil
(32.7726°N, 5.5387°W)
Time: 15:35:54
(UTC+00:00)

Cosmos 1500 - Visible Passes

Search period start: 24 June 2021 00:00
Search period end: 04 July 2021 00:00
Orbit: 497 x 518 km, 82.5° (Epoch: 24 June)

Date Brightness Start Highest point End Pass type
(mag) Time Alt. Az. Time Alt. Az. Time Alt. Az.
24 Jun 6.2 03:30:38 10° ESE 03:31:54 11° E 03:33:11 10° ENE visible
25 Jun 3.7 04:46:03 10° SSW 04:49:33 40° W 04:53:05 10° N visible
26 Jun 3.2 04:28:23 10° SSW 04:32:01 56° W 04:35:42 10° N visible
27 Jun 3.0 04:11:00 11° S 04:14:31 80° W 04:18:15 10° N visible
28 Jun 3.3 03:54:07 16° S 03:57:01 73° E 04:00:45 10° N visible
29 Jun 3.8 03:37:12 20° SSE 03:39:31 51° E 03:43:10 10° NNE visible
30 Jun 4.4 03:20:15 22° SE 03:22:04 37° E 03:25:31 10° NNE visible
01 Jul 4.9 03:03:16 21° SE 03:04:36 27° E 03:07:48 10° NNE visible
01 Jul 5.2 04:38:23 10° WSW 04:40:09 13° WNW 04:41:56 10° NW visible
02 Jul 5.3 02:46:15 19° ESE 02:47:09 20° E 02:49:57 10° NE visible
02 Jul 4.9 04:21:07 14° WSW 04:22:34 17° WNW 04:25:07 10° NW visible
03 Jul 5.7 02:29:13 15° E 02:29:43 15° E 02:31:55 10° NE visible
03 Jul 4.5 04:04:05 21° W 04:05:00 23° WNW 04:08:01 10° NNW visible
